SCP
0 0 0 0 0 0 0 0 0 0 0 0 0 0 0 0 0 0 0 0 0 0 0 0 0 0 0 0 0 0 0 0 0 0 0 0 0 0
0 0 0 0 0 0 0 0 0 0 0 0 0 0 0 0 0 0 0 0 0 0 0 0 0 0 0 0 0 0 0 0 0 0 0 0 0 0
0 0 0 0 0 0 0 0 0 0 0 0 0 0 0 0 0 0 0 0 0 0 0 0 0 0 0 0 0 0 0 0 0 0 0 0 0 0
0 0 0 0 0 0 0 0 0 0 0 0 0 0 0 0 0 0 0 0 0 0 0 0 0 0 0 0 0 0 0 0 0 0 0 0 0 0
0 0 0 0 0 0 0 0 0 0 0 0 0 0 0 0 0 0 0 0 0 0 0 0 0 0 0 0 0 0 0 0 0 0 0 0 0 0
0 0 0 0 0 0 0 0 0 0 0 0 0 0 0 0 0 0 0 0 0 0 0 0 0 0 0 0 0 0 0 0 0 0 0 0 0 0
0 0 0 0 0 0 0 0 0 0 0 0 0 0 0 0 0 0 0 0 0 0 0 0 0 0 0 0 0 0 0 0 0 0 0 0 0 0
0 0 0 0 0 0 0 0 0 0 0 0 0 0 0 0 0 0 0 0 0 0 0 0 0 0 0 0 0 0 0 0 0 0 0 0 0 0
0 0 0 0 0 0 0 0 0 0 0 0 0 0 0 0 0 0 0 0 0 0 0 0 0 0 0 0 0 0 0 0 0 0 0 0 0 0
0 0 0 0 0 0 0 0 0 0 0 0 0 0 0 0 0 0 0 0 0 0 0 0 0 0 0 0 0 0 0 0 0 0 0 0 0 0
0 0 0 0 0 0 0 0 0 0 0 0 0 0 0 0 0 0 0 0 0 0 0 0 0 0 0 0 0 0 0 0 0 0 0 0 0 0
0 0 0 0 0 0 0 0 0 0 0 0 0 0 0 0 0 0 0 0 0 0 0 0 0 0 0 0 0 0 0 0 0 0 0 0 0 0
0 0 0 0 0 0 0 0 0 0 0 0 0 0 0 0 0 0 0 0 0 0 0 0 0 0 0 0 0 0 0 0 0 0 0 0 0 0
0 0 0 0 0 0 0 0 0 0 0 0 0 0 0 0 0 0 0 0 0 0 0 0 0 0 0 0 0 0 0 0 0 0 0 0 0 0
0 0 0 0 0 0 0 0 0 0 0 0 0 0 0 0 0 0 0 0 0 0 0 0 0 0 0 0 0 0 0 0 0 0 0 0 0 0
0 0 0 0 0 0 0 0 0 0 0 0 0 0 0 0 0 0 0 0 0 0 0 0 0 0 0 0 0 0 0 0 0 0 0 0 0 0
0 0 0 0 0 0 0 0 0 0 0 0 0 0 0 0 0 0 0 0 0 0 0 0 0 0 0 0 0 0 0 0 0 0 0 0 0 0
0 0 0 0 0 0 0 0 0 0 0 0 0 0 0 0 0 0 0 0 0 0 0 0 0 0 0 0 0 0 0 0 0 0 0 0 0 0
0 0 0 0 0 0 0 0 0 0 0 0 0 0 0 0 0 0 0 0 0 0 0 0 0 0 0 0 0 0 0 0 0 0 0 0 0 0
0 0 0 0 0 0 0 0 0 0 0 0 0 0 0 0 0 0 0 0 0 0 0 0 0 0 0 0 0 0 0 0 0 0 0 0 0 0
0 0 0 0 0 0 0 0 0 0 0 0 0 0 0 0 0 0 0 0 0 0 0 0 0 0 0 0 0 0 0 0 0 0 0 0 0 0
0 0 0 0 0 0 0 0 0 0 0 0 0 0 0 0 0 0 0 0 0 0 0 0 0 0 0 0 0 0 0 0 0 0 0 0 0 0
0 0 0 0 0 0 0 0 0 0 0 0 0 0 0 0 0 0 0 0 0 0 0 0 0 0 0 0 0 0 0 0 0 0 0 0 0 0
Wind_Speed
5 5 4 3 3 3 3 3 4 3 3 2 2 2 2 2 2 1 2 4 5 5 6 7 7 7 7 7 7 8 7 6 6 4 3 4 4 4
4 5 4 3 3 3 3 2 2 3 2 1 2 2 3 2 2 2 2 4 4 5 6 6 7 7 8 8 8 9 8 8 6 6 6 5 6 6
5 5 5 5 4 3 3 2 2 2 2 1 1 2 2 3 1 1 2 2 2 4 5 6 6 7 7 8 8 9 8 9 8 7 7 7 6 6
6 6 6 4 5 4 3 3 3 3 3 3 2 1 2 3 2 2 2 2 1 4 5 5 5 6 6 7 8 8 8 8 8 8 8 7 7 7
6 6 6 6 5 4 4 3 2 2 2 3 2 1 1 2 2 1 1 1 1 2 3 4 4 5 6 7 7 8 8 8 9 9 9 8 8 7
5 5 6 6 6 5 4 4 3 3 3 3 3 2 2 2 2 2 1 1 0 1 2 2 4 5 6 6 7 7 7 8 8 9 9 9 10 9
4 4 5 6 6 5 4 4 5 4 3 3 3 2 2 2 2 2 2 1 0 1 1 1 1 2 2 4 5 6 7 7 8 8 8 9 10 10
5 5 5 6 7 7 6 6 5 5 4 3 2 3 3 3 3 3 3 2 1 1 2 0 1 1 1 1 3 5 5 6 7 7 8 9 9 9
5 5 4 5 6 5 6 6 4 4 4 4 4 3 4 4 5 4 3 2 2 2 2 1 1 1 0 1 3 3 4 5 6 7 7 8 8 8
5 6 6 6 6 6 6 5 3 2 2 2 3 3 3 3 5 5 4 3 2 1 2 2 1 1 1 1 2 3 3 4 4 5 6 6 6 7
4 5 6 6 9 9 7 6 4 2 3 5 5 5 6 6 6 5 4 3 1 1 1 2 2 1 0 0 1 3 3 3 3 3 4 5 5 5
4 4 7 8 10 10 6 6 5 3 3 4 4 3 3 4 5 4 5 4 2 2 2 2 2 2 1 0 0 0 1 2 3 3 3 3 3 2
4 3 4 10 10 10 7 5 7 6 4 4 3 2 2 2 2 3 2 3 3 2 3 3 2 2 2 1 0 0 1 1 0 1 2 3 3 2
4 3 5 10 10 9 6 7 9 7 3 3 3 2 2 2 2 3 4 3 3 2 3 3 2 3 3 2 1 0 0 1 1 1 0 2 2 3
3 7 8 10 8 6 8 9 7 4 4 3 3 2 2 3 3 3 3 4 4 3 2 2 2 2 2 2 2 1 1 1 1 1 1 1 1 1
4 7 9 9 5 6 6 5 3 4 4 3 3 3 3 3 3 3 2 2 2 1 1 1 2 3 2 2 2 2 2 2 2 2 1 1 1 2
5 3 3 3 3 3 3 3 3 3 3 3 3 3 4 3 3 3 3 3 2 2 2 1 1 1 1 2 2 3 3 2 2 2 2 2 2 3
6 4 4 4 4 5 5 4 3 4 3 4 4 4 4 4 3 3 3 3 3 3 3 3 2 1 0 2 5 4 3 3 2 3 2 2 3 3
4 4 4 4 4 4 4 4 4 4 4 4 4 4 4 4 4 4 4 3 3 3 3 3 3 3 3 2 3 7 4 3 3 3 3 3 3 3
3 3 4 4 4 4 4 4 4 4 4 4 4 4 4 4 4 4 4 5 4 4 4 4 4 5 5 4 2 2 6 4 3 3 2 2 3 4
2 2 2 3 3 3 4 4 4 4 4 4 4 5 4 4 4 4 4 7 6 4 5 5 5 7 3 2 1 2 2 7 6 4 3 2 2 2
2 2 2 2 3 3 3 4 4 4 4 4 4 4 4 4 5 5 5 5 5 5 4 3 3 4 4 4 4 3 2 2 6 9 8 6 4 4
2 2 2 3 3 3 3 4 5 4 4 5 5 5 5 5 4 5 5 5 4 5 4 4 4 3 4 4 4 4 4 3 3 3 5 10 13 12
Wind_Direction
191 179 179 176 164 157 148 152 162 186 207 164 142 135 119 104 122 98 101 90 84 77 67 55 46 41 36 28 25 24 22 21 25 38 58 84 100 102
185 171 170 159 148 141 140 147 155 169 184 148 140 139 125 120 130 94 98 99 93 94 82 69 60 50 42 37 36 31 35 36 39 47 64 82 97 98
171 165 163 152 151 144 142 148 163 158 174 130 88 119 123 131 115 90 94 80 88 98 90 78 69 58 46 43 38 35 38 43 45 54 61 77 90 97
172 161 158 150 148 148 151 163 171 163 159 167 146 131 126 144 139 119 101 96 89 100 95 86 75 67 59 52 44 41 44 47 51 55 60 68 82 87
165 162 158 156 157 153 153 159 157 143 137 146 146 125 123 142 125 103 104 85 99 108 102 88 78 72 70 60 50 49 53 57 58 56 56 60 71 83
149 151 154 158 157 151 153 155 147 139 137 140 140 139 137 138 135 152 152 123 118 90 100 98 90 79 71 65 56 55 59 63 64 63 64 64 66 74
123 124 126 130 138 145 151 154 152 153 152 148 145 139 152 163 183 170 165 143 140 142 100 78 86 65 53 59 60 61 63 65 67 70 72 74 74 76
135 125 121 124 130 134 137 142 149 156 160 156 160 172 184 181 163 161 146 145 201 203 128 147 115 98 64 70 86 80 77 73 71 75 78 78 79 80
146 142 139 144 138 134 136 126 114 125 147 155 167 182 177 175 161 160 166 165 190 177 125 153 132 126 110 97 110 102 96 87 80 80 84 85 85 87
150 151 149 147 150 145 138 129 120 105 119 137 158 163 150 150 161 162 153 120 82 69 116 144 161 146 113 91 142 135 119 106 97 94 92 90 85 85
139 144 147 148 160 155 141 135 128 120 106 118 120 125 130 141 141 125 130 129 142 204 163 136 145 112 97 139 184 163 149 135 125 116 109 104 97 83
139 145 156 160 166 162 149 148 154 161 138 117 104 101 111 142 146 146 155 152 145 183 195 138 136 123 116 316 69 133 167 187 174 161 149 140 124 91
157 159 168 171 170 170 164 160 170 158 144 136 129 118 102 96 89 89 114 146 154 175 170 136 134 135 139 154 276 204 156 147 140 182 184 181 174 142
164 162 165 169 172 171 166 167 165 152 133 135 136 137 132 123 102 87 82 79 86 130 137 127 141 156 142 145 201 209 130 148 136 140 159 222 227 218
159 165 166 169 169 167 172 172 160 144 143 151 158 159 145 136 123 106 88 82 69 62 74 99 136 142 144 161 170 162 178 237 178 167 185 196 201 204
151 164 168 166 159 165 168 163 148 157 159 164 160 148 137 143 153 152 148 144 114 85 58 83 125 148 160 177 172 193 191 203 200 193 194 217 222 209
146 138 148 151 158 160 156 154 160 163 172 160 159 158 160 165 170 163 159 161 163 162 161 150 131 125 160 172 193 210 203 210 206 189 188 223 238 227
159 161 172 175 178 178 176 177 179 180 177 169 167 170 173 174 172 170 173 180 188 186 174 166 154 129 33 268 218 209 207 209 203 194 185 212 249 239
172 174 183 186 185 182 181 181 186 184 176 175 178 178 177 177 177 183 188 193 197 196 185 171 173 167 176 236 242 204 191 188 182 198 206 208 232 247
175 182 189 188 185 184 184 184 183 179 178 180 182 183 183 184 186 190 193 197 199 195 192 187 194 198 198 197 213 223 205 190 186 201 209 214 247 265
174 180 183 184 184 184 184 183 183 184 182 182 187 189 189 189 195 196 197 207 205 201 207 211 210 197 178 140 207 240 224 214 202 190 181 183 226 245
176 185 186 184 183 185 182 180 183 186 187 191 192 193 193 194 200 200 200 203 206 208 212 202 171 169 180 203 222 223 226 220 231 236 230 204 184 205
183 190 191 190 189 187 186 186 189 193 193 195 197 198 197 200 202 203 205 205 204 202 199 189 176 183 200 210 224 231 231 220 210 222 243 242 242 246